Location: Warwick
(41.7000°N, 71.4170°W)
Time: 16:33:48
(UTC-05:00)

Envisat - Visible Passes

Search period start: 17 February 2018 00:00
Search period end: 27 February 2018 00:00
Orbit: 764 x 766 km, 98.2° (Epoch: 17 February)

Date Brightness Start Highest point End Pass type
(mag) Time Alt. Az. Time Alt. Az. Time Alt. Az.
17 Feb 4.2 18:04:50 10° ESE 18:08:34 21° ENE 18:12:18 10° NNE visible
17 Feb 3.8 19:42:20 10° S 19:47:13 49° W 19:52:09 10° NNW visible
18 Feb 2.8 19:05:25 10° SSE 19:10:28 76° ENE 19:15:34 10° N visible
18 Feb 5.9 20:47:57 10° WSW 20:50:03 12° W 20:52:09 10° WNW visible
19 Feb 3.6 18:29:21 10° SE 18:33:55 35° ENE 18:38:30 10° N visible
19 Feb 4.8 20:08:38 10° SSW 20:12:57 28° W 20:17:18 10° NW visible
20 Feb 4.4 17:54:22 10° ESE 17:57:34 17° ENE 18:00:46 10° NNE visible
20 Feb 3.4 19:31:03 10° S 19:36:03 62° WSW 19:41:07 10° NNW visible
21 Feb 3.0 18:54:23 10° SSE 18:59:22 60° ENE 19:04:23 10° N visible
21 Feb 5.6 20:35:43 10° SW 20:38:46 16° W 20:41:52 10° NW visible
22 Feb 3.9 18:18:36 10° SE 18:22:52 28° ENE 18:27:09 10° N visible
22 Feb 4.5 19:57:08 10° SSW 20:01:45 35° W 20:06:23 10° NNW visible
23 Feb 3.0 19:19:50 10° S 19:24:54 79° WSW 19:30:01 10° NNW visible
24 Feb 3.2 18:43:26 10° SE 18:48:16 48° ENE 18:53:09 10° N visible
24 Feb 5.3 20:23:49 10° SW 20:27:32 20° W 20:31:16 10° NW visible
25 Feb 4.1 18:07:56 10° ESE 18:11:50 23° ENE 18:15:45 10° NNE visible
25 Feb 4.0 19:45:44 10° S 19:50:34 44° W 19:55:25 10° NNW visible
26 Feb 2.9 19:08:43 10° SSE 19:13:47 83° ENE 19:18:53 10° NNW visible
26 Feb 5.9 20:51:58 10° WSW 20:53:25 11° W 20:54:52 10° WNW visible
